This is the latest recevied weather packets stored in our database for station/object EA5EN. If no packets are shown the sender has not sent any weather packets the latest 10 day(s).
| Time | Temp. | Humidity | Pressure | Rain* | Wind** | Luminosity | Snow |
|---|---|---|---|---|---|---|---|
| 1777151741 | 15° C | 84% | 1018.4 hPa | 0 mm | - | - | - |
| 1777151136 | 15.56° C | 83% | 1018.4 hPa | 0 mm | - | - | - |
| 1777147586 | 16.67° C | 74% | 1017.9 hPa | 0 mm | - | - | - |
| 1777146979 | 16.67° C | 73% | 1017.7 hPa | 0 mm | - | - | - |
| 1777142723 | 17.22° C | 72% | 1017 hPa | 0 mm | - | - | - |
| 1777141573 | 17.22° C | 71% | 1017.1 hPa | 0 mm | - | - | - |
| 1777136731 | 17.22° C | 70% | 1017 hPa | 0 mm | - | - | - |
| 1777134370 | 17.22° C | 69% | 1016.9 hPa | 0 mm | - | - | - |
| 1777133765 | 17.22° C | 69% | 1017 hPa | 0 mm | - | - | - |
| 1777132553 | 17.22° C | 70% | 1017 hPa | 0 mm | - | - | - |
| 1777131343 | 17.22° C | 70% | 1016.9 hPa | 0 mm | - | - | - |
| 1777130133 | 17.22° C | 70% | 1017.2 hPa | 0 mm | - | - | - |
| 1777128922 | 17.22° C | 69% | 1017.3 hPa | 0 mm | - | - | - |
| 1777128317 | 17.22° C | 67% | 1017.4 hPa | 0 mm | - | - | - |
| 1777122324 | 17.22° C | 70% | 1018.5 hPa | 0 mm | - | - | - |
| 1777120569 | 16.67° C | 75% | 1018.5 hPa | 0 mm | - | - | - |
| 1777119358 | 16.11° C | 75% | 1018.6 hPa | 0 mm | - | - | - |
| 1777116353 | 16.11° C | 75% | 1018.7 hPa | 0 mm | - | - | - |
| 1777113367 | 16.11° C | 79% | 1019 hPa | 0.25 mm | - | - | - |
| 1777110946 | 16.11° C | 78% | 1019.3 hPa | 1.02 mm | - | - | - |
| 1777110341 | 16.11° C | 77% | 1019.1 hPa | 0.51 mm | - | - | - |
| 1777107921 | 16.67° C | 67% | 1018.9 hPa | 0.25 mm | - | - | - |
| 1777107376 | 16.11° C | 69% | 1018.7 hPa | 0.25 mm | - | - | - |
| 1777101928 | 16.11° C | 87% | 1018.3 hPa | 0 mm | - | - | - |
| 1777099567 | 16.11° C | 84% | 1017.8 hPa | 0 mm | - | - | - |
* Rain latest hour (hover to see other rain measurements)
** Current wind speed in m/s (hover to see current wind gust speed)